< < Back
Terminal Aerodrome Forecast


Current Version              Previous Versions:   1  2  3  4  5  6  7  8  9  

Terminal Aerodrome Forecast

073
FTUS42 KFFC 110521
TAFFTY
TAF
KFTY 110521Z 1106/1206 30004KT P6SM BKN060
     FM110900 28003KT P6SM SCT070
     FM111500 VRB03KT P6SM SCT050
     FM120000 VRB03KT P6SM BKN100
     FM120400 05003KT P6SM BKN040=

Latest METAR

234
SAUS70 KWBC 111700 RRA
MTRFTY
METAR KFTY 111653Z VRB04KT 10SM CLR 08/M09 A3018 RMK AO2 SLP224
T00781094


USA.gov is the U.S. government's official web portal to all federal, state and local government web resources and services.